Wind_Speed
36 36 35 34 34 34 33 33 33 34 34 34 33 33 32 32 32 31 31 30 30 30 29 28 27 26 25 25 25 24 23 22 21 20 20 19 19 19 18 18 17 16 15
38 38 38 37 37 37 36 36 35 35 35 35 35 35 34 34 34 33 32 32 31 31 31 30 30 29 28 28 27 26 26 24 23 23 22 21 21 20 20 19 19 18 17
41 41 40 39 39 39 39 39 38 37 36 36 36 36 36 36 35 34 33 33 33 32 32 32 32 31 30 29 29 28 27 26 25 25 25 24 23 22 22 21 21 20 19
42 42 42 42 42 42 41 41 40 40 39 38 37 38 38 37 37 36 35 35 34 33 33 33 33 33 32 31 31 30 29 28 27 27 27 26 25 25 24 24 24 23 22
43 43 44 43 43 43 43 43 43 42 41 40 39 39 39 39 38 38 37 37 36 36 35 35 34 34 33 33 33 32 31 30 30 28 28 28 28 27 27 26 26 26 25
44 45 45 45 45 45 45 45 44 43 42 42 41 41 40 40 40 40 39 39 39 38 38 37 36 36 35 35 35 35 34 33 32 31 30 29 29 29 29 29 28 28 28
46 47 47 47 46 46 46 46 46 46 45 44 44 42 42 42 42 42 42 41 41 41 40 39 39 38 37 36 37 37 37 36 35 34 33 32 32 31 31 31 31 31 30
48 47 47 48 48 47 47 47 47 47 47 46 46 45 44 43 43 43 44 43 43 43 43 42 41 40 39 38 38 38 38 37 37 37 36 35 34 34 34 33 33 33 33
49 49 49 48 48 49 48 49 49 48 48 47 47 47 46 45 45 44 45 45 45 45 45 44 43 43 42 41 40 40 40 40 38 38 39 38 37 36 36 36 36 36 35
51 51 51 50 49 49 50 50 50 50 50 49 49 50 49 47 47 46 46 46 47 47 46 46 45 44 44 43 42 42 42 42 42 40 40 40 39 39 39 38 38 38 38
53 52 52 52 52 51 52 52 52 51 51 52 52 52 52 51 50 49 47 47 48 48 49 48 47 47 46 46 44 44 44 44 44 44 43 42 42 41 42 40 40 39 39
54 54 53 53 54 54 53 53 54 54 53 53 54 55 55 54 53 52 51 50 49 49 50 49 49 49 49 49 48 47 46 45 46 46 46 45 45 44 43 43 42 41 41
55 55 55 54 55 55 55 54 54 55 55 55 55 56 56 57 56 55 54 53 51 51 51 51 51 51 51 51 51 50 49 48 47 47 48 48 47 46 46 45 44 44 43
56 56 56 56 56 56 56 56 56 56 56 55 56 57 57 57 57 57 56 55 54 53 52 52 52 52 53 53 53 52 51 50 49 48 48 49 49 49 49 48 47 46 46
57 56 57 57 57 56 57 57 57 57 57 56 57 58 57 57 57 56 57 56 55 54 53 52 53 53 54 54 54 54 53 52 51 50 48 49 51 51 50 50 50 49 49
57 57 57 58 58 57 57 57 57 57 57 57 57 56 56 56 56 56 58 58 57 56 54 54 53 54 55 55 55 55 54 54 53 52 51 50 50 52 52 52 52 52 51
56 57 57 58 58 59 59 59 58 58 57 55 55 54 55 55 55 55 56 57 58 57 56 55 55 55 56 56 56 56 56 56 55 54 54 53 52 52 53 54 54 54 53
56 57 57 58 58 58 58 58 58 57 56 54 53 53 53 54 55 55 55 56 57 58 57 56 56 57 57 57 56 56 56 57 56 56 55 55 55 54 54 54 54 54 54
56 56 57 56 56 56 57 56 56 55 55 53 52 53 53 54 55 55 55 56 57 57 58 57 56 57 58 58 57 57 57 57 57 58 57 57 56 56 55 54 55 55 55
56 56 55 54 54 54 54 54 53 53 53 52 53 54 54 55 55 56 56 56 57 57 57 57 57 57 58 58 58 57 58 58 58 59 58 57 57 56 55 55 55 55 56
55 54 54 54 53 52 51 51 51 52 52 52 52 54 55 56 56 56 56 57 58 58 57 57 57 57 57 58 58 58 58 58 59 59 58 57 57 57 56 56 57 56 56
53 53 53 52 52 51 51 51 51 51 52 53 52 53 54 55 56 57 57 57 58 58 58 58 57 57 57 57 57 57 58 58 58 58 59 59 58 58 58 58 57 57 56
50 50 50 50 50 51 51 51 51 51 52 52 53 54 55 55 56 56 57 57 58 59 59 58 57 57 56 56 57 57 58 58 58 59 60 59 59 59 59 60 59 58 58
47 47 48 49 50 50 49 50 51 51 51 52 52 53 55 55 56 56 56 56 56 58 58 59 58 57 57 56 57 57 57 58 59 59 60 60 60 60 60 60 59 59 59
44 45 46 47 48 48 48 49 50 51 52 52 52 53 53 54 55 55 56 56 56 57 58 58 58 57 58 58 58 58 58 58 59 59 61 61 61 60 60 59 59 60 60
42 43 44 45 46 46 47 48 49 50 51 51 51 51 52 52 53 54 55 55 56 57 58 59 58 56 57 58 59 59 59 59 59 60 60 62 62 62 61 61 60 60 60
Wind_Direction
265 265 265 264 263 261 260 259 258 258 257 257 257 256 255 255 255 256 255 254 254 253 253 253 253 252 251 248 249 249 246 246 246 246 245 244 243 243 242 242 243 244 246
265 265 265 264 263 261 260 260 260 259 258 258 257 256 256 254 255 255 254 254 253 252 252 253 254 253 252 249 247 248 246 246 246 246 246 246 245 244 244 242 242 242 245
265 265 265 264 263 262 261 260 260 260 260 258 257 257 256 254 253 254 254 254 253 252 251 251 252 252 251 248 247 247 246 246 245 246 246 247 248 246 245 244 243 243 244
265 264 264 264 263 261 261 261 261 260 260 259 258 257 256 255 254 253 253 253 253 252 251 250 251 251 250 247 246 246 246 246 246 245 246 246 247 247 247 247 246 246 245
264 264 264 263 262 261 261 261 262 262 260 259 257 256 256 256 255 253 253 253 252 252 251 250 250 250 250 248 246 246 246 246 247 246 245 246 246 247 248 248 247 248 248
264 264 263 263 262 262 261 261 262 262 260 258 256 255 255 255 256 255 254 253 252 252 252 251 250 250 249 249 248 246 246 246 246 246 246 246 247 247 247 247 248 248 249
264 264 264 264 264 262 261 261 261 261 261 259 257 255 255 255 255 255 255 254 254 253 252 251 250 249 248 249 249 248 247 247 247 247 247 246 247 248 247 248 248 249 249
264 264 265 265 264 263 261 261 261 260 260 260 258 255 254 253 253 254 254 254 254 253 252 250 249 248 247 249 249 248 248 247 248 248 247 246 247 248 248 249 249 249 249
263 264 264 264 264 263 262 261 260 260 259 259 258 256 255 254 253 253 254 254 254 252 251 249 249 248 247 248 249 249 248 247 247 248 248 247 247 248 249 250 249 250 250
263 263 263 263 263 263 262 262 261 260 259 258 258 257 256 255 255 254 255 255 255 252 251 249 248 247 247 247 248 249 249 248 247 247 247 247 247 248 249 251 251 251 251
263 263 263 262 262 263 263 262 262 261 259 258 258 258 257 256 255 255 255 255 255 253 251 249 248 248 248 248 248 249 249 249 248 248 248 248 248 249 250 251 252 253 253
262 263 263 263 262 262 263 263 262 261 259 258 258 258 257 257 256 256 256 255 254 252 251 249 248 248 248 248 248 249 249 250 250 249 248 248 248 249 250 250 252 253 253
262 262 262 262 262 262 262 263 262 262 260 259 259 258 258 257 257 257 256 255 254 253 251 249 249 249 248 248 248 249 249 249 250 250 249 249 250 250 250 250 251 252 253
262 262 262 262 263 263 263 263 262 262 260 259 259 259 258 258 258 257 256 255 254 252 250 250 250 249 249 249 249 249 249 249 250 251 250 250 250 250 250 251 251 252 253
262 263 263 263 263 264 263 263 263 262 260 260 260 259 258 258 258 258 256 254 253 250 249 250 249 249 249 249 249 249 249 249 250 250 250 250 250 250 251 252 253 253 253
263 263 264 264 264 264 264 264 263 261 261 261 260 258 256 256 257 257 256 254 252 251 250 249 249 249 249 249 250 249 249 249 250 251 250 250 250 250 251 252 253 254 254
264 264 264 265 265 265 264 263 262 261 260 260 258 256 255 255 256 256 255 253 251 250 250 249 249 249 249 250 250 250 249 249 250 250 251 251 251 250 250 251 252 253 253
264 265 265 265 265 265 264 262 261 260 259 258 255 254 254 255 255 255 255 253 251 251 251 250 249 249 250 250 250 250 250 250 250 250 251 252 252 251 251 250 251 252 252
265 266 266 266 266 265 263 261 259 258 257 256 254 254 254 255 255 255 255 253 252 251 251 250 249 249 250 250 251 251 251 250 250 250 250 251 252 251 251 251 252 252 251
265 266 266 265 265 264 262 260 259 257 256 255 256 256 255 255 254 254 255 253 253 252 251 250 250 250 250 251 252 253 251 250 249 249 249 250 250 250 251 251 252 252 251
266 266 265 264 263 262 261 260 258 256 255 256 257 257 256 255 255 255 255 253 253 252 252 251 250 250 251 251 252 253 252 249 248 248 249 249 250 250 250 251 252 251 252
266 265 264 262 262 262 261 259 257 256 257 258 258 257 256 256 256 255 255 254 254 252 251 251 250 251 252 252 253 252 251 250 248 248 248 248 249 250 251 251 252 252 252
265 264 263 262 262 261 259 258 257 257 260 259 258 257 256 256 256 256 255 254 253 252 251 251 250 251 251 252 252 252 252 250 249 249 249 248 249 250 250 251 252 253 253
265 264 264 262 261 259 258 258 258 260 261 260 260 259 258 257 257 256 255 254 253 252 251 250 250 251 251 252 252 252 252 251 251 250 250 250 250 250 250 251 251 252 252
266 265 264 262 261 259 258 258 259 259 260 260 261 261 260 259 257 256 256 255 254 253 251 251 251 251 251 252 253 253 252 251 251 251 250 250 250 250 251 251 251 251 251
267 266 265 263 261 259 259 259 259 260 261 261 261 261 261 260 259 257 256 256 254 253 252 252 251 250 251 252 253 253 253 253 252 251 251 250 250 250 250 250 250 250 250
Height
5771 5771 5772 5772 5773 5774 5775 5776 5778 5780 5782 5783 5784 5786 5788 5790 5791 5793 5795 5797 5798 5800 5801 5803 5804 5806 5807 5809 5811 5812 5814 5815 5817 5818 5820 5821 5823 5824 5825 5826 5828 5829 5830
5762 5763 5763 5764 5765 5766 5767 5768 5770 5772 5774 5775 5776 5778 5780 5782 5784 5786 5788 5789 5791 5793 5794 5796 5798 5799 5801 5802 5804 5806 5808 5809 5811 5813 5814 5816 5818 5820 5821 5822 5823 5825 5826
5753 5754 5754 5755 5756 5757 5759 5760 5761 5763 5765 5767 5768 5770 5772 5774 5776 5778 5780 5782 5783 5785 5787 5789 5790 5792 5794 5795 5797 5799 5801 5803 5805 5807 5809 5811 5812 5814 5816 5817 5819 5820 5822
5743 5744 5744 5745 5746 5748 5749 5751 5752 5754 5755 5757 5759 5761 5763 5765 5767 5769 5771 5773 5775 5777 5779 5781 5782 5784 5786 5788 5790 5792 5794 5796 5798 5800 5802 5805 5806 5808 5810 5812 5814 5815 5817
5732 5733 5734 5735 5736 5737 5739 5740 5742 5744 5745 5747 5749 5751 5753 5755 5757 5760 5762 5764 5766 5768 5770 5772 5774 5776 5778 5780 5782 5785 5787 5789 5791 5793 5795 5798 5800 5802 5804 5806 5808 5809 5811
5720 5721 5723 5724 5725 5726 5728 5730 5731 5733 5734 5737 5739 5741 5743 5745 5747 5750 5752 5754 5756 5759 5761 5763 5765 5767 5769 5772 5774 5777 5779 5781 5784 5786 5788 5791 5793 5795 5797 5799 5801 5803 5805
5709 5710 5711 5712 5713 5715 5716 5718 5720 5721 5723 5725 5728 5731 5733 5734 5737 5739 5741 5743 5746 5748 5750 5753 5755 5757 5760 5763 5765 5768 5770 5773 5775 5778 5780 5783 5785 5787 5789 5792 5794 5796 5798
5697 5698 5699 5700 5701 5703 5704 5706 5708 5709 5711 5713 5716 5718 5721 5724 5726 5727 5730 5732 5734 5737 5739 5742 5745 5747 5750 5753 5756 5758 5761 5764 5767 5769 5772 5774 5777 5779 5781 5783 5786 5788 5790
5684 5685 5686 5687 5688 5690 5691 5693 5695 5697 5699 5701 5703 5705 5708 5711 5714 5716 5718 5720 5722 5725 5727 5730 5733 5737 5740 5743 5746 5748 5751 5754 5757 5759 5762 5765 5768 5770 5772 5775 5777 5779 5781
5670 5671 5672 5673 5675 5676 5678 5679 5681 5683 5686 5688 5690 5692 5695 5698 5701 5704 5706 5707 5710 5712 5715 5718 5722 5725 5728 5732 5735 5738 5740 5743 5747 5749 5752 5755 5758 5760 5763 5765 5767 5770 5772
5656 5657 5658 5659 5660 5661 5663 5665 5667 5669 5671 5674 5676 5678 5681 5683 5686 5689 5693 5695 5696 5699 5702 5706 5709 5713 5716 5720 5723 5726 5729 5732 5735 5738 5741 5744 5747 5750 5753 5755 5757 5760 5762
5641 5642 5643 5644 5645 5647 5648 5650 5652 5654 5656 5659 5661 5664 5666 5669 5672 5674 5678 5681 5683 5686 5688 5692 5696 5700 5703 5707 5710 5713 5717 5720 5724 5727 5730 5733 5736 5739 5742 5745 5747 5750 5752
5625 5626 5628 5629 5630 5631 5632 5634 5635 5638 5640 5643 5646 5648 5651 5653 5656 5659 5662 5665 5669 5672 5675 5678 5682 5686 5689 5693 5697 5700 5704 5707 5711 5714 5718 5721 5724 5727 5730 5733 5736 5739 5741
5610 5611 5612 5613 5614 5615 5616 5618 5619 5621 5623 5626 5629 5632 5634 5637 5640 5643 5646 5650 5653 5657 5661 5664 5668 5671 5675 5679 5683 5686 5690 5694 5698 5701 5705 5708 5711 5714 5717 5721 5724 5727 5730
5593 5595 5596 5597 5598 5599 5600 5601 5602 5604 5606 5608 5611 5614 5617 5620 5623 5625 5629 5632 5637 5641 5646 5650 5653 5657 5660 5664 5668 5672 5676 5680 5684 5688 5691 5694 5698 5701 5704 5707 5711 5714 5717
5577 5578 5579 5580 5581 5582 5582 5583 5585 5586 5588 5590 5592 5595 5599 5603 5606 5608 5612 5615 5619 5624 5630 5635 5638 5641 5645 5649 5652 5656 5661 5665 5669 5673 5677 5680 5683 5687 5690 5693 5696 5700 5703
5561 5562 5563 5563 5564 5565 5565 5566 5567 5569 5570 5572 5574 5578 5581 5585 5588 5591 5595 5598 5602 5607 5612 5618 5621 5625 5629 5633 5637 5640 5645 5649 5654 5657 5661 5665 5668 5671 5675 5678 5682 5685 5689
5545 5546 5546 5547 5547 5547 5548 5549 5550 5551 5553 5555 5558 5562 5565 5569 5572 5575 5578 5582 5585 5590 5595 5600 5605 5609 5613 5617 5620 5624 5628 5633 5637 5641 5645 5649 5652 5656 5659 5663 5666 5670 5674
5529 5529 5529 5530 5530 5530 5531 5532 5533 5535 5537 5540 5543 5546 5550 5553 5556 5559 5562 5566 5569 5574 5578 5583 5588 5592 5596 5600 5604 5608 5612 5616 5620 5625 5629 5633 5636 5640 5644 5647 5651 5654 5658
5512 5513 5513 5513 5513 5514 5514 5515 5517 5519 5522 5525 5528 5531 5534 5537 5540 5543 5546 5550 5553 5557 5562 5566 5571 5575 5579 5583 5587 5591 5595 5600 5604 5608 5612 5616 5620 5624 5628 5632 5636 5639 5643
5496 5496 5496 5497 5498 5498 5499 5500 5502 5504 5507 5510 5513 5515 5518 5521 5523 5527 5530 5534 5537 5541 5545 5549 5554 5558 5563 5566 5570 5574 5578 5582 5587 5591 5596 5601 5605 5609 5612 5615 5619 5623 5627
5479 5479 5480 5481 5482 5483 5484 5485 5487 5490 5492 5495 5497 5499 5502 5504 5507 5510 5513 5517 5520 5524 5528 5533 5538 5542 5546 5550 5553 5556 5561 5566 5572 5578 5580 5584 5588 5592 5596 5600 5603 5607 5610
5464 5464 5464 5465 5467 5468 5469 5470 5472 5474 5477 5479 5481 5484 5486 5488 5491 5494 5497 5500 5503 5507 5511 5516 5521 5526 5530 5534 5537 5541 5544 5548 5554 5559 5562 5568 5572 5576 5580 5583 5587 5590 5594
5448 5449 5449 5450 5451 5453 5453 5455 5456 5458 5461 5463 5466 5468 5470 5472 5474 5477 5480 5484 5487 5491 5495 5499 5505 5509 5513 5516 5520 5524 5527 5532 5537 5541 5545 5550 5555 5559 5563 5566 5569 5573 5577
5434 5434 5434 5435 5436 5438 5439 5440 5442 5444 5446 5449 5450 5452 5454 5456 5459 5461 5465 5468 5472 5475 5478 5482 5487 5491 5495 5499 5502 5506 5511 5515 5520 5525 5528 5532 5538 5541 5545 5549 5552 5556 5560
5420 5420 5420 5421 5422 5423 5424 5425 5426 5429 5432 5434 5435 5437 5439 5440 5442 5444 5447 5451 5455 5458 5462 5466 5470 5474 5478 5482 5485 5489 5493 5498 5502 5508 5511 5514 5519 5523 5528 5533 5536 5539 5543